[[{"header":{"parameterUnit":"m.s-1","parameterCategory":1,"la1":30.2991,"la2":30.254,"lo1":-89.0895,"lo2":-89.0444,"dy":0.0017,"dx":0.0017,"nx":28,"ny":28,"refTime":"2026-03-05T09:00:00:Z","depth":0,"parameterNumber":2,"parameterNumberName":"U-component_of_WINDS"},"data":[0,0,0,0,0,0,0,0,0,0,0,0,0,0,0,0,0,0,0,0,0,0,0,0,0,0,0,0,0,0,0,0,0,0,0,0,0,0,0,0,0,0,0,0,0,0,0,0,0,0,0,0,0,0,0,0,0,0,-4.652,-4.6522,0,-4.6623,-4.6624,-4.6626,-4.6608,-4.6607,-4.6605,-4.6603,-4.6708,-4.6712,-4.6717,0,0,0,0,0,0,0,0,0,0,0,0,0,-4.6311,-4.6314,-4.652,-4.6522,-4.6523,-4.6623,-4.6624,-4.6626,-4.6609,-4.6607,-4.6604,-4.6602,-4.6707,-4.6712,-4.6717,0,0,0,0,0,0,0,0,0,0,0,0,0,-4.6406,-4.6316,-4.652,-4.6526,-4.6528,-4.6623,-4.6625,-4.6626,-4.6609,-4.6606,-4.6604,-4.6601,-4.6705,-4.6711,-4.6718,-4.6813,0,0,-4.6738,-4.6741,0,0,0,0,0,0,0,0,-4.6401,-4.6414,-4.6524,-4.6526,-4.6528,-4.66,-4.6589,-4.6689,-4.661,-4.6578,-4.6603,-4.66,-4.6674,-4.6683,-4.6709,-4.6818,-4.6822,-4.6739,-4.6743,-4.6746,-4.6748,0,0,0,0,0,0,0,-4.6394,-4.641,-4.6561,-4.6526,-4.6528,-4.6525,-4.6535,-4.6608,-4.664,-4.6581,-4.658,-4.6592,-4.6675,-4.6702,-4.6711,-4.6824,-4.6739,-4.6745,-4.6749,-4.6752,-4.7018,-4.7021,0,0,0,0,0,0,-4.6386,-4.6404,-4.6558,-4.6564,-4.6457,-4.6531,-4.6542,-4.658,-4.6639,-4.6646,-4.6594,-4.6591,-4.6692,-4.6703,-4.6715,-4.683,-4.6746,-4.6752,-4.6756,-4.7015,-4.7018,-4.7022,0,0,0,0,0,0,-4.6381,-4.64,-4.6554,-4.6484,-4.6503,-4.6537,-4.6579,-4.6583,-4.661,-4.665,-4.6655,-4.6616,-4.669,-4.6705,-4.6789,-4.6833,-4.6755,-4.6761,-4.7011,-4.7016,-4.702,-4.706,0,0,0,0,0,0,-4.6375,-4.6398,-4.6434,-4.6485,-4.6507,-4.6626,-4.6582,-4.6587,-4.6622,-4.6619,-4.6671,-4.6678,-4.6689,-4.6779,-4.6796,-4.6841,-4.6766,-4.7007,-4.7013,-4.7019,-4.7055,-4.7066,-4.7075,0,0,0,0,0,-4.6368,-4.6441,-4.6436,-4.6454,-4.6552,-4.6628,-4.6641,-4.6653,-4.6626,-4.6662,-4.6688,-4.6676,-4.6826,-4.6788,-4.6806,-4.6854,-4.7004,-4.7011,-4.7018,-4.7051,-4.7063,-4.7074,0,0,0,0,0,0,-4.6393,-4.6447,-4.6442,-4.6534,-4.6577,-4.6625,-4.6671,-4.6666,-4.6717,-4.6712,-4.6725,-4.6737,-4.6822,-4.6847,-4.6803,-4.695,-4.6912,-4.6922,-4.693,-4.6942,-4.6952,-4.6943,-4.6772,0,0,0,0,0,-4.6409,-4.6466,-4.6511,-4.6587,-4.6609,-4.6637,-4.667,-4.6676,-4.6721,-4.6739,-4.677,-4.6815,-4.6872,-4.6909,-4.6964,-4.706,-4.7071,-4.7102,-4.7112,-4.712,-4.7128,-4.7182,-4.7196,-4.7044,-4.7044,-4.7044,0,0,-4.6443,-4.648,-4.6514,-4.6593,-4.6627,-4.6686,-4.6652,-4.6715,-4.6759,-4.6748,-4.6829,-4.6855,-4.6905,-4.6995,-4.7037,-4.7018,-4.7173,-4.7129,-4.7135,-4.7139,-4.719,-4.7204,-4.7217,-4.7049,-4.7048,-4.7047,0,0,-4.6534,-4.6568,-4.6635,-4.6671,-4.6723,-4.6741,-4.6758,-4.6808,-4.6825,-4.6907,-4.69,-4.6953,-4.7051,-4.7088,-4.7119,-4.7228,-4.7219,-4.7246,-4.7296,-4.7348,-4.736,-4.737,-4.7408,-4.7422,-4.7255,-4.7255,-4.7255,0,-4.6569,-4.6657,-4.667,-4.6735,-4.677,-4.6765,-4.6834,-4.6868,-4.6935,-4.696,-4.6939,-4.7063,-4.7097,-4.7196,-4.7223,-4.7249,-4.7268,-4.7238,-4.7357,-4.7368,-4.7378,-4.7414,-4.7429,-4.7258,-4.7257,-4.7257,-4.7257,0,-4.6697,-4.6759,-4.6807,-4.6873,-4.6914,-4.6981,-4.7005,-4.7045,-4.7049,-4.707,-4.7154,-4.7195,-4.7258,-4.7283,-4.7287,-4.7384,-4.7371,-4.7354,-4.7315,-4.7395,-4.7429,-4.7443,-4.7262,-4.7261,-4.726,-4.7259,0,0,-4.6802,-4.6878,-4.6895,-4.6926,-4.6985,-4.7033,-4.71,-4.7163,-4.7197,-4.7245,-4.7301,-4.7387,-4.7372,-4.7408,-4.7416,-4.7462,-4.7546,-4.7439,-4.7441,-4.7456,-4.7655,-4.7665,-4.7681,-4.7542,-4.7544,-4.7547,-4.765,0,-4.6898,-4.7016,-4.7032,-4.7137,-4.7194,-4.7192,-4.7251,-4.7294,-4.7317,-4.7369,-4.7395,-4.7454,-4.7431,-4.7452,-4.7498,-4.7526,-4.7585,-4.7519,-4.7594,-4.7596,-4.7578,-4.7699,-4.7711,-4.7806,-4.7664,-4.7666,-4.7668,0,-4.7024,-4.7076,-4.7187,-4.724,-4.7264,-4.7317,-4.7376,-4.7427,-4.7477,-4.749,-4.7532,-4.7535,-4.7606,-4.7567,-4.7665,-4.7619,-4.7652,-4.7671,-4.7675,-4.768,-4.7635,-4.7706,-4.7837,-4.785,-4.7689,-4.7688,-4.7686,0,-4.7088,-4.7187,-4.7266,-4.7292,-4.7356,-4.7393,-4.7422,-4.7469,-4.7506,-4.7559,-4.7584,-4.7644,-4.7677,-4.7724,-4.7744,-4.7714,-4.7841,-4.7804,-4.7854,-4.7853,-4.7878,-4.7875,-4.8013,-4.7903,-4.7903,-4.7902,-4.7902,0,-4.7191,-4.7259,-4.7295,-4.7344,-4.742,-4.7439,-4.7514,-4.7541,-4.7584,-4.7638,-4.7642,-4.7692,-4.7717,-4.7773,-4.779,-4.7868,-4.7883,-4.7896,-4.7899,-4.7894,-4.7892,-4.7913,-4.7906,-4.7906,-4.7905,-4.7904,-4.7904,0,-4.7274,-4.7302,-4.7388,-4.7442,-4.7458,-4.7511,-4.7558,-4.7606,-4.763,-4.7699,-4.7716,-4.7753,-4.7818,-4.7845,-4.7924,-4.7936,-4.8026,-4.8025,-4.8009,-4.8009,-4.8057,-4.8052,-4.8211,-4.8233,-4.811,-4.8111,-4.8112,0,-4.7337,-4.7389,-4.745,-4.7487,-4.7517,-4.7576,-4.7614,-4.7637,-4.7677,-4.7739,-4.7779,-4.7845,-4.7898,-4.8003,-4.8037,-4.8099,-4.8098,-4.815,-4.8107,-4.8101,-4.8097,-4.8093,-4.8098,-4.8157,-4.8158,-4.8159,-4.816,0,-4.7445,-4.7457,-4.7512,-4.7573,-4.762,-4.7669,-4.7717,-4.7747,-4.7777,-4.7822,-4.7889,-4.7931,-4.8013,-4.8078,-4.8143,-4.8173,-4.8172,-4.8174,-4.8189,-4.8183,-4.817,-4.8176,-4.8028,-4.8169,-4.8168,-4.8168,-4.8167,-4.8167,-4.7519,-4.7565,-4.7616,-4.7678,-4.7717,-4.7762,-4.781,-4.7841,-4.7897,-4.7966,-4.7976,-4.8048,-4.8099,-4.8185,-4.8219,-4.8276,-4.8262,-4.8284,-4.8289,-4.8293,-4.8295,-4.8164,-4.8288,-4.8288,-4.8288,-4.8287,-4.8287,0,-4.7626,-4.7659,-4.7716,-4.7784,-4.7833,-4.783,-4.7884,-4.7925,-4.7988,-4.8036,-4.8089,-4.8167,-4.8231,-4.8272,-4.8337,-4.8375,-4.8376,-4.8391,-4.8387,-4.8394,-4.8304,-4.8285,-4.8389,-4.8389,-4.8389,-4.8389,-4.8389,-4.8389,-4.7687,-4.7765,-4.7783,-4.7882,-4.7915,-4.7986,-4.8017,-4.8059,-4.8097,-4.8184,-4.8238,-4.8265,-4.831,-4.8379,-4.8438,-4.8448,-4.8471,-4.8487,-4.8496,-4.8411,-4.84,-4.839,-4.8371,-4.8492,-4.8492,-4.8581,-4.8582,-4.8582]},{"header":{"parameterUnit":"m.s-1","parameterCategory":1,"la1":30.2991,"la2":30.254,"lo1":-89.0895,"lo2":-89.0444,"dy":0.0017,"dx":0.0017,"nx":28,"ny":28,"refTime":"2026-03-05T09:00:00:Z","depth":0,"parameterNumber":3,"parameterNumberName":"V-component_of_WINDS"},"data":[0,0,0,0,0,0,0,0,0,0,0,0,0,0,0,0,0,0,0,0,0,0,0,0,0,0,0,0,0,0,0,0,0,0,0,0,0,0,0,0,0,0,0,0,0,0,0,0,0,0,0,0,0,0,0,0,0,0,2.3978,2.3979,0,2.4062,2.4063,2.4064,2.4102,2.4102,2.4102,2.4102,2.4186,2.4188,2.419,0,0,0,0,0,0,0,0,0,0,0,0,0,2.385,2.3852,2.3978,2.3979,2.398,2.4062,2.4063,2.4064,2.4102,2.4102,2.4102,2.4102,2.4185,2.4188,2.4191,0,0,0,0,0,0,0,0,0,0,0,0,0,2.3917,2.3853,2.3977,2.4009,2.4012,2.4062,2.4063,2.4064,2.4102,2.4102,2.4102,2.4102,2.4184,2.4188,2.4191,2.4215,0,0,2.4202,2.4203,0,0,0,0,0,0,0,0,2.3913,2.3922,2.4003,2.4007,2.4011,2.4071,2.4049,2.4115,2.4102,2.4068,2.4102,2.4102,2.4148,2.4154,2.417,2.4219,2.4223,2.4202,2.4204,2.4206,2.4207,0,0,0,0,0,0,0,2.3908,2.3918,2.4011,2.4004,2.4009,2.4019,2.4028,2.4062,2.4107,2.4071,2.4074,2.4083,2.415,2.4167,2.4172,2.4224,2.4202,2.4205,2.4207,2.4208,2.43,2.4301,0,0,0,0,0,0,2.3899,2.3914,2.4008,2.4013,2.3961,2.4021,2.4031,2.4052,2.4107,2.4115,2.4083,2.4085,2.4161,2.4168,2.4176,2.421,2.4206,2.4209,2.4211,2.43,2.43,2.4301,0,0,0,0,0,0,2.3896,2.3907,2.4005,2.3965,2.3978,2.4023,2.4046,2.4054,2.4071,2.4117,2.4125,2.4092,2.4161,2.4171,2.4206,2.4213,2.421,2.4214,2.43,2.43,2.4301,2.4277,0,0,0,0,0,0,2.3892,2.3906,2.3915,2.3965,2.398,2.4033,2.4046,2.4055,2.4077,2.408,2.4127,2.4135,2.4162,2.4201,2.4209,2.4218,2.4216,2.4299,2.43,2.43,2.4277,2.4276,2.4276,0,0,0,0,0,2.3887,2.3903,2.3915,2.3926,2.3992,2.4034,2.4043,2.4074,2.4077,2.4087,2.4118,2.4133,2.4211,2.4204,2.4214,2.4224,2.4299,2.43,2.43,2.4277,2.4276,2.4276,0,0,0,0,0,0,2.3852,2.391,2.3924,2.3956,2.399,2.404,2.4053,2.4071,2.4104,2.4105,2.4141,2.4152,2.4184,2.4207,2.4199,2.4252,2.4256,2.4259,2.4235,2.4235,2.4234,2.4228,2.4219,0,0,0,0,0,2.3848,2.3877,2.3926,2.395,2.3967,2.4007,2.4026,2.4048,2.4084,2.4098,2.413,2.4164,2.4197,2.4217,2.4249,2.4281,2.4293,2.4293,2.4292,2.4291,2.4293,2.4315,2.4316,2.4303,2.4303,2.4303,0,0,2.3839,2.3875,2.3891,2.3944,2.3973,2.4003,2.4019,2.4049,2.4071,2.4102,2.4138,2.4163,2.4204,2.4238,2.4255,2.4259,2.43,2.4292,2.4291,2.4294,2.4316,2.4317,2.4318,2.4304,2.4304,2.4304,0,0,2.384,2.3869,2.3894,2.3923,2.3967,2.3994,2.4,2.4049,2.4067,2.4104,2.4129,2.4157,2.4211,2.424,2.4261,2.4277,2.4294,2.4286,2.4283,2.4303,2.4304,2.4305,2.4313,2.4315,2.4288,2.4288,2.4288,0,2.3824,2.387,2.3904,2.3934,2.3958,2.3989,2.4015,2.4041,2.4093,2.4109,2.4112,2.4183,2.4212,2.4255,2.426,2.4275,2.4285,2.4281,2.4301,2.4303,2.4304,2.4312,2.4314,2.4287,2.4287,2.4287,2.4287,0,2.385,2.3881,2.3896,2.3947,2.3972,2.4,2.4039,2.4061,2.4081,2.4108,2.4147,2.4184,2.4225,2.4237,2.4255,2.4284,2.4285,2.4294,2.43,2.4304,2.4312,2.4315,2.4285,2.4286,2.4286,2.4286,0,0,2.3828,2.39,2.3905,2.393,2.3982,2.4008,2.4038,2.408,2.4099,2.4134,2.4161,2.4208,2.4218,2.4243,2.4265,2.4283,2.4296,2.4291,2.4293,2.4292,2.4332,2.4325,2.4328,2.4308,2.4308,2.4309,2.4329,0,2.3837,2.3892,2.3926,2.3968,2.3999,2.4031,2.4058,2.4093,2.412,2.4151,2.418,2.4214,2.4224,2.424,2.4259,2.429,2.4305,2.4289,2.4334,2.4335,2.4324,2.4332,2.4324,2.4341,2.4332,2.4333,2.4333,0,2.3854,2.3891,2.3937,2.3989,2.4003,2.4026,2.4069,2.4098,2.4139,2.4158,2.4188,2.4211,2.4245,2.4248,2.4297,2.4286,2.4306,2.4325,2.4327,2.4333,2.4335,2.4339,2.4347,2.4351,2.4338,2.4338,2.4337,0,2.3836,2.3897,2.3933,2.3953,2.4014,2.403,2.4056,2.4098,2.4122,2.416,2.4176,2.4217,2.4239,2.427,2.4305,2.4303,2.4351,2.4356,2.4368,2.4367,2.4377,2.4376,2.439,2.4388,2.4388,2.4388,2.4388,0,2.3843,2.387,2.3926,2.3949,2.3981,2.402,2.4051,2.4079,2.4117,2.4146,2.4175,2.4202,2.4246,2.4278,2.4305,2.4343,2.4352,2.4369,2.4376,2.4367,2.4365,2.4381,2.4381,2.4389,2.4388,2.4388,2.4388,0,2.3827,2.3866,2.3908,2.3964,2.3979,2.4,2.4048,2.4071,2.4101,2.4138,2.4149,2.4196,2.4236,2.4274,2.4326,2.4345,2.4383,2.4391,2.4369,2.4374,2.4384,2.4383,2.441,2.4416,2.4409,2.4409,2.4409,0,2.3829,2.3852,2.3911,2.3933,2.3959,2.3994,2.402,2.406,2.4086,2.4137,2.4155,2.4197,2.4234,2.4297,2.4335,2.4377,2.4387,2.4394,2.4393,2.4385,2.439,2.4388,2.4392,2.4393,2.4393,2.4393,2.4393,0,2.383,2.3849,2.3885,2.393,2.396,2.3996,2.4034,2.405,2.4097,2.4125,2.4167,2.4196,2.4252,2.4294,2.4341,2.4368,2.4389,2.4393,2.4398,2.4389,2.4377,2.4386,2.4369,2.4392,2.4392,2.4392,2.4392,2.4392,2.3825,2.3847,2.3893,2.3934,2.3967,2.4002,2.4028,2.4062,2.4098,2.4148,2.4169,2.4213,2.4257,2.4322,2.4349,2.4384,2.4389,2.4396,2.4398,2.4399,2.4399,2.4371,2.4393,2.4393,2.4393,2.4393,2.4393,0,2.3828,2.386,2.3897,2.395,2.3982,2.4,2.4044,2.407,2.4108,2.4148,2.4184,2.4234,2.4277,2.432,2.4365,2.4385,2.4396,2.4396,2.4395,2.4402,2.4391,2.4383,2.4386,2.4386,2.4386,2.4386,2.4386,2.4386,2.3834,2.3874,2.3899,2.3956,2.3988,2.4032,2.4056,2.4089,2.4121,2.4176,2.4213,2.4241,2.4283,2.4332,2.4373,2.4384,2.44,2.4398,2.4412,2.4402,2.4402,2.4402,2.4394,2.44,2.44,2.442,2.442,2.442]}]]